Year,Month,Day,Hour,Minute,Value (Times are PST for insolation in W/m^2)
2015,04,24,00,00,0.00
2015,04,24,00,01,0.00
2015,04,24,00,02,0.00
2015,04,24,00,03,0.00
2015,04,24,00,04,0.00
2015,04,24,00,05,0.00
2015,04,24,00,06,0.00
2015,04,24,00,07,0.00
2015,04,24,00,08,0.00
2015,04,24,00,09,0.00
2015,04,24,00,10,0.00
2015,04,24,00,11,0.00
2015,04,24,00,12,0.00
2015,04,24,00,13,0.00
2015,04,24,00,14,0.00
2015,04,24,00,15,0.00
2015,04,24,00,16,0.00
2015,04,24,00,17,0.00
2015,04,24,00,18,0.00
2015,04,24,00,19,0.00
2015,04,24,00,20,0.00
2015,04,24,00,21,0.00
2015,04,24,00,22,0.00
2015,04,24,00,23,0.00
2015,04,24,00,24,0.00
2015,04,24,00,25,0.00
2015,04,24,00,26,0.00
2015,04,24,00,27,0.00
2015,04,24,00,28,0.00
2015,04,24,00,29,0.00
2015,04,24,00,30,0.00
2015,04,24,00,31,0.00
2015,04,24,00,32,0.00
2015,04,24,00,33,0.00
2015,04,24,00,34,0.00
2015,04,24,00,35,0.00
2015,04,24,00,36,0.00
2015,04,24,00,37,0.00
2015,04,24,00,38,0.00
2015,04,24,00,39,0.00
2015,04,24,00,40,0.00
2015,04,24,00,41,0.00
2015,04,24,00,42,0.00
2015,04,24,00,43,0.00
2015,04,24,00,44,0.00
2015,04,24,00,45,0.00
2015,04,24,00,46,0.00
2015,04,24,00,47,0.00
2015,04,24,00,48,0.00
2015,04,24,00,49,0.00
2015,04,24,00,50,0.00
2015,04,24,00,51,0.00
2015,04,24,00,52,0.00
2015,04,24,00,53,0.00
2015,04,24,00,54,0.00
2015,04,24,00,55,0.00
2015,04,24,00,56,0.00
2015,04,24,00,57,0.00
2015,04,24,00,58,0.00
2015,04,24,00,59,0.00
2015,04,24,01,00,0.00
2015,04,24,01,01,0.00
2015,04,24,01,02,0.00
2015,04,24,01,03,0.00
2015,04,24,01,04,0.00
2015,04,24,01,05,0.00
2015,04,24,01,06,0.00
2015,04,24,01,07,0.00
2015,04,24,01,08,0.00
2015,04,24,01,09,0.00
2015,04,24,01,10,0.00
2015,04,24,01,11,0.00
2015,04,24,01,12,0.00
2015,04,24,01,13,0.00
2015,04,24,01,14,0.00
2015,04,24,01,15,0.00
2015,04,24,01,16,0.00
2015,04,24,01,17,0.00
2015,04,24,01,18,0.00
2015,04,24,01,19,0.00
2015,04,24,01,20,0.00
2015,04,24,01,21,0.00
2015,04,24,01,22,0.00
2015,04,24,01,23,0.00
2015,04,24,01,24,0.00
2015,04,24,01,25,0.00
2015,04,24,01,26,0.00
2015,04,24,01,27,0.00
2015,04,24,01,28,0.00
2015,04,24,01,29,0.00
2015,04,24,01,30,0.00
2015,04,24,01,31,0.00
2015,04,24,01,32,0.00
2015,04,24,01,33,0.00
2015,04,24,01,34,0.00
2015,04,24,01,35,0.00
2015,04,24,01,36,0.00
2015,04,24,01,37,0.00
2015,04,24,01,38,0.00
2015,04,24,01,39,0.00
2015,04,24,01,40,0.00
2015,04,24,01,41,0.00
2015,04,24,01,42,0.00
2015,04,24,01,43,0.00
2015,04,24,01,44,0.00
2015,04,24,01,45,0.00
2015,04,24,01,46,0.00
2015,04,24,01,47,0.00
2015,04,24,01,48,0.00
2015,04,24,01,49,0.00
2015,04,24,01,50,0.00
2015,04,24,01,51,0.00
2015,04,24,01,52,0.00
2015,04,24,01,53,0.00
2015,04,24,01,54,0.00
2015,04,24,01,55,0.00
2015,04,24,01,56,0.00
2015,04,24,01,57,0.00
2015,04,24,01,58,0.00
2015,04,24,01,59,0.00
2015,04,24,02,00,0.00
2015,04,24,02,01,0.00
2015,04,24,02,02,0.00
2015,04,24,02,03,0.00
2015,04,24,02,04,0.00
2015,04,24,02,05,0.00
2015,04,24,02,06,0.00
2015,04,24,02,07,0.00
2015,04,24,02,08,0.00
2015,04,24,02,09,0.00
2015,04,24,02,10,0.00
2015,04,24,02,11,0.00
2015,04,24,02,12,0.00
2015,04,24,02,13,0.00
2015,04,24,02,14,0.00
2015,04,24,02,15,0.00
2015,04,24,02,16,0.00
2015,04,24,02,17,0.00
2015,04,24,02,18,0.00
2015,04,24,02,19,0.00
2015,04,24,02,20,0.00
2015,04,24,02,21,0.00
2015,04,24,02,22,0.00
2015,04,24,02,23,0.00
2015,04,24,02,24,0.00
2015,04,24,02,25,0.00
2015,04,24,02,26,0.00
2015,04,24,02,27,0.00
2015,04,24,02,28,0.00
2015,04,24,02,29,0.00
2015,04,24,02,30,0.00
2015,04,24,02,31,0.00
2015,04,24,02,32,0.00
2015,04,24,02,33,0.00
2015,04,24,02,34,0.00
2015,04,24,02,35,0.00
2015,04,24,02,36,0.00
2015,04,24,02,37,0.00
2015,04,24,02,38,0.00
2015,04,24,02,39,0.00
2015,04,24,02,40,0.00
2015,04,24,02,41,0.00
2015,04,24,02,42,0.00
2015,04,24,02,43,0.00
2015,04,24,02,44,0.00
2015,04,24,02,45,0.00
2015,04,24,02,46,0.00
2015,04,24,02,47,0.00
2015,04,24,02,48,0.00
2015,04,24,02,49,0.00
2015,04,24,02,50,0.00
2015,04,24,02,51,0.00
2015,04,24,02,52,0.00
2015,04,24,02,53,0.00
2015,04,24,02,54,0.00
2015,04,24,02,55,0.00
2015,04,24,02,56,0.00
2015,04,24,02,57,0.00
2015,04,24,02,58,0.00
2015,04,24,02,59,0.00
2015,04,24,03,00,0.00
2015,04,24,03,01,0.00
2015,04,24,03,02,0.00
2015,04,24,03,03,0.00
2015,04,24,03,04,0.00
2015,04,24,03,05,0.00
2015,04,24,03,06,0.00
2015,04,24,03,07,0.00
2015,04,24,03,08,0.00
2015,04,24,03,09,0.00
2015,04,24,03,10,0.00
2015,04,24,03,11,0.00
2015,04,24,03,12,0.00
2015,04,24,03,13,0.00
2015,04,24,03,14,0.00
2015,04,24,03,15,0.00
2015,04,24,03,16,0.00
2015,04,24,03,17,0.00
2015,04,24,03,18,0.00
2015,04,24,03,19,0.00
2015,04,24,03,20,0.00
2015,04,24,03,21,0.00
2015,04,24,03,22,0.00
2015,04,24,03,23,0.00
2015,04,24,03,24,0.00
2015,04,24,03,25,0.00
2015,04,24,03,26,0.00
2015,04,24,03,27,0.00
2015,04,24,03,28,0.00
2015,04,24,03,29,0.00
2015,04,24,03,30,0.00
2015,04,24,03,31,0.00
2015,04,24,03,32,0.00
2015,04,24,03,33,0.00
2015,04,24,03,34,0.00
2015,04,24,03,35,0.00
2015,04,24,03,36,0.00
2015,04,24,03,37,0.00
2015,04,24,03,38,0.00
2015,04,24,03,39,0.00
2015,04,24,03,40,0.00
2015,04,24,03,41,0.00
2015,04,24,03,42,0.00
2015,04,24,03,43,0.00
2015,04,24,03,44,0.00
2015,04,24,03,45,0.00
2015,04,24,03,46,0.00
2015,04,24,03,47,0.00
2015,04,24,03,48,0.00
2015,04,24,03,49,0.00
2015,04,24,03,50,0.00
2015,04,24,03,51,0.00
2015,04,24,03,52,0.00
2015,04,24,03,53,0.00
2015,04,24,03,54,0.00
2015,04,24,03,55,0.00
2015,04,24,03,56,0.00
2015,04,24,03,57,0.00
2015,04,24,03,58,0.00
2015,04,24,03,59,0.00
2015,04,24,04,00,0.00
2015,04,24,04,01,0.00
2015,04,24,04,02,0.00
2015,04,24,04,03,0.00
2015,04,24,04,04,0.00
2015,04,24,04,05,0.00
2015,04,24,04,06,0.00
2015,04,24,04,07,0.00
2015,04,24,04,08,0.00
2015,04,24,04,09,0.00
2015,04,24,04,10,0.00
2015,04,24,04,11,0.00
2015,04,24,04,12,0.00
2015,04,24,04,13,0.00
2015,04,24,04,14,0.00
2015,04,24,04,15,0.00
2015,04,24,04,16,0.00
2015,04,24,04,17,0.00
2015,04,24,04,18,0.00
2015,04,24,04,19,0.00
2015,04,24,04,20,0.00
2015,04,24,04,21,0.00
2015,04,24,04,22,0.00
2015,04,24,04,23,0.00
2015,04,24,04,24,0.00
2015,04,24,04,25,0.00
2015,04,24,04,26,0.00
2015,04,24,04,27,0.00
2015,04,24,04,28,0.00
2015,04,24,04,29,0.00
2015,04,24,04,30,0.00
2015,04,24,04,31,0.00
2015,04,24,04,32,0.00
2015,04,24,04,33,0.00
2015,04,24,04,34,0.00
2015,04,24,04,35,0.00
2015,04,24,04,36,0.00
2015,04,24,04,37,0.00
2015,04,24,04,38,0.00
2015,04,24,04,39,0.00
2015,04,24,04,40,0.00
2015,04,24,04,41,0.00
2015,04,24,04,42,0.00
2015,04,24,04,43,0.00
2015,04,24,04,44,0.00
2015,04,24,04,45,0.00
2015,04,24,04,46,0.00
2015,04,24,04,47,0.00
2015,04,24,04,48,0.00
2015,04,24,04,49,0.00
2015,04,24,04,50,0.00
2015,04,24,04,51,0.00
2015,04,24,04,52,0.00
2015,04,24,04,53,0.00
2015,04,24,04,54,0.00
2015,04,24,04,55,0.00
2015,04,24,04,56,0.00
2015,04,24,04,57,0.00
2015,04,24,04,58,0.00
2015,04,24,04,59,0.00
2015,04,24,05,00,0.00
2015,04,24,05,01,0.00
2015,04,24,05,02,0.00
2015,04,24,05,03,0.00
2015,04,24,05,04,0.00
2015,04,24,05,05,0.00
2015,04,24,05,06,0.00
2015,04,24,05,07,0.00
2015,04,24,05,08,0.00
2015,04,24,05,09,0.00
2015,04,24,05,10,0.00
2015,04,24,05,11,0.00
2015,04,24,05,12,0.00
2015,04,24,05,13,0.00
2015,04,24,05,14,0.00
2015,04,24,05,15,0.00
2015,04,24,05,16,0.00
2015,04,24,05,17,0.00
2015,04,24,05,18,0.00
2015,04,24,05,19,0.00
2015,04,24,05,20,0.00
2015,04,24,05,21,0.00
2015,04,24,05,22,0.00
2015,04,24,05,23,0.00
2015,04,24,05,24,0.00
2015,04,24,05,25,0.00
2015,04,24,05,26,0.00
2015,04,24,05,27,0.00
2015,04,24,05,28,0.00
2015,04,24,05,29,0.00
2015,04,24,05,30,0.00
2015,04,24,05,31,0.00
2015,04,24,05,32,0.00
2015,04,24,05,33,0.00
2015,04,24,05,34,0.00
2015,04,24,05,35,0.00
2015,04,24,05,36,0.00
2015,04,24,05,37,0.00
2015,04,24,05,38,0.00
2015,04,24,05,39,0.00
2015,04,24,05,40,0.00
2015,04,24,05,41,0.00
2015,04,24,05,42,0.00
2015,04,24,05,43,0.00
2015,04,24,05,44,0.00
2015,04,24,05,45,0.00
2015,04,24,05,46,0.00
2015,04,24,05,47,0.00
2015,04,24,05,48,0.00
2015,04,24,05,49,0.00
2015,04,24,05,50,0.00
2015,04,24,05,51,0.00
2015,04,24,05,52,0.00
2015,04,24,05,53,0.00
2015,04,24,05,54,0.00
2015,04,24,05,55,0.00
2015,04,24,05,56,0.00
2015,04,24,05,57,0.00
2015,04,24,05,58,0.00
2015,04,24,05,59,0.00
2015,04,24,06,00,0.00
2015,04,24,06,01,0.00
2015,04,24,06,02,0.00
2015,04,24,06,03,0.00
2015,04,24,06,04,0.00
2015,04,24,06,05,0.00
2015,04,24,06,06,0.00
2015,04,24,06,07,0.00
2015,04,24,06,08,0.00
2015,04,24,06,09,0.00
2015,04,24,06,10,0.00
2015,04,24,06,11,0.00
2015,04,24,06,12,0.00
2015,04,24,06,13,0.00
2015,04,24,06,14,0.00
2015,04,24,06,15,0.00
2015,04,24,06,16,0.00
2015,04,24,06,17,0.00
2015,04,24,06,18,0.00
2015,04,24,06,19,0.00
2015,04,24,06,20,0.00
2015,04,24,06,21,0.00
2015,04,24,06,22,0.00
2015,04,24,06,23,0.00
2015,04,24,06,24,0.00
2015,04,24,06,25,0.00
2015,04,24,06,26,0.00
2015,04,24,06,27,0.00
2015,04,24,06,28,0.00
2015,04,24,06,29,0.00
2015,04,24,06,30,3.90
2015,04,24,06,31,5.00
2015,04,24,06,32,5.00
2015,04,24,06,33,5.00
2015,04,24,06,34,5.70
2015,04,24,06,35,7.00
2015,04,24,06,36,7.00
2015,04,24,06,37,7.00
2015,04,24,06,38,8.80
2015,04,24,06,39,9.00
2015,04,24,06,40,9.00
2015,04,24,06,41,9.00
2015,04,24,06,42,10.00
2015,04,24,06,43,11.00
2015,04,24,06,44,11.00
2015,04,24,06,45,11.00
2015,04,24,06,46,11.10
2015,04,24,06,47,12.00
2015,04,24,06,48,12.00
2015,04,24,06,49,13.00
2015,04,24,06,50,14.00
2015,04,24,06,51,14.00
2015,04,24,06,52,14.00
2015,04,24,06,53,14.20
2015,04,24,06,54,16.00
2015,04,24,06,55,16.00
2015,04,24,06,56,16.00
2015,04,24,06,57,17.30
2015,04,24,06,58,18.00
2015,04,24,06,59,16.20
2015,04,24,07,00,16.00
2015,04,24,07,01,16.00
2015,04,24,07,02,16.00
2015,04,24,07,03,16.00
2015,04,24,07,04,16.00
2015,04,24,07,05,16.00
2015,04,24,07,06,17.80
2015,04,24,07,07,18.00
2015,04,24,07,08,18.00
2015,04,24,07,09,18.00
2015,04,24,07,10,18.00
2015,04,24,07,11,18.00
2015,04,24,07,12,18.00
2015,04,24,07,13,18.00
2015,04,24,07,14,18.00
2015,04,24,07,15,18.00
2015,04,24,07,16,18.00
2015,04,24,07,17,18.50
2015,04,24,07,18,19.00
2015,04,24,07,19,19.00
2015,04,24,07,20,19.00
2015,04,24,07,21,19.30
2015,04,24,07,22,21.00
2015,04,24,07,23,21.00
2015,04,24,07,24,21.00
2015,04,24,07,25,21.00
2015,04,24,07,26,21.00
2015,04,24,07,27,21.00
2015,04,24,07,28,21.00
2015,04,24,07,29,21.00
2015,04,24,07,30,21.00
2015,04,24,07,31,21.00
2015,04,24,07,32,21.00
2015,04,24,07,33,21.00
2015,04,24,07,34,19.20
2015,04,24,07,35,19.00
2015,04,24,07,36,19.00
2015,04,24,07,37,19.00
2015,04,24,07,38,19.00
2015,04,24,07,39,19.00
2015,04,24,07,40,19.00
2015,04,24,07,41,19.00
2015,04,24,07,42,19.00
2015,04,24,07,43,19.00
2015,04,24,07,44,19.00
2015,04,24,07,45,19.00
2015,04,24,07,46,20.30
2015,04,24,07,47,21.00
2015,04,24,07,48,21.10
2015,04,24,07,49,23.00
2015,04,24,07,50,23.00
2015,04,24,07,51,23.00
2015,04,24,07,52,23.00
2015,04,24,07,53,23.00
2015,04,24,07,54,24.50
2015,04,24,07,55,25.00
2015,04,24,07,56,26.00
2015,04,24,07,57,26.50
2015,04,24,07,58,28.00
2015,04,24,07,59,29.00
2015,04,24,08,00,31.30
2015,04,24,08,01,32.00
2015,04,24,08,02,32.90
2015,04,24,08,03,35.20
2015,04,24,08,04,37.40
2015,04,24,08,05,39.40
2015,04,24,08,06,41.00
2015,04,24,08,07,43.30
2015,04,24,08,08,45.50
2015,04,24,08,09,46.90
2015,04,24,08,10,49.00
2015,04,24,08,11,49.00
2015,04,24,08,12,49.70
2015,04,24,08,13,52.00
2015,04,24,08,14,53.60
2015,04,24,08,15,55.60
2015,04,24,08,16,57.80
2015,04,24,08,17,62.10
2015,04,24,08,18,64.00
2015,04,24,08,19,67.80
2015,04,24,08,20,70.60
2015,04,24,08,21,73.30
2015,04,24,08,22,75.50
2015,04,24,08,23,76.90
2015,04,24,08,24,79.20
2015,04,24,08,25,81.50
2015,04,24,08,26,83.40
2015,04,24,08,27,85.00
2015,04,24,08,28,87.20
2015,04,24,08,29,88.00
2015,04,24,08,30,90.60
2015,04,24,08,31,95.20
2015,04,24,08,32,97.30
2015,04,24,08,33,98.70
2015,04,24,08,34,101.00
2015,04,24,08,35,103.30
2015,04,24,08,36,104.70
2015,04,24,08,37,106.80
2015,04,24,08,38,109.20
2015,04,24,08,39,111.70
2015,04,24,08,40,115.50
2015,04,24,08,41,119.00
2015,04,24,08,42,120.60
2015,04,24,08,43,122.50
2015,04,24,08,44,126.60
2015,04,24,08,45,128.70
2015,04,24,08,46,135.30
2015,04,24,08,47,140.10
2015,04,24,08,48,144.10
2015,04,24,08,49,147.90
2015,04,24,08,50,150.50
2015,04,24,08,51,154.60
2015,04,24,08,52,156.40
2015,04,24,08,53,160.50
2015,04,24,08,54,162.40
2015,04,24,08,55,164.00
2015,04,24,08,56,166.30
2015,04,24,08,57,167.00
2015,04,24,08,58,165.10
2015,04,24,08,59,162.90
2015,04,24,09,00,161.10
2015,04,24,09,01,157.30
2015,04,24,09,02,156.00
2015,04,24,09,03,155.40
2015,04,24,09,04,155.00
2015,04,24,09,05,155.00
2015,04,24,09,06,155.00
2015,04,24,09,07,155.00
2015,04,24,09,08,155.00
2015,04,24,09,09,155.00
2015,04,24,09,10,155.00
2015,04,24,09,11,155.00
2015,04,24,09,12,155.00
2015,04,24,09,13,155.00
2015,04,24,09,14,155.30
2015,04,24,09,15,156.70
2015,04,24,09,16,159.00
2015,04,24,09,17,160.00
2015,04,24,09,18,160.00
2015,04,24,09,19,161.80
2015,04,24,09,20,162.40
2015,04,24,09,21,165.50
2015,04,24,09,22,167.70
2015,04,24,09,23,170.00
2015,04,24,09,24,171.00
2015,04,24,09,25,171.00
2015,04,24,09,26,171.00
2015,04,24,09,27,170.70
2015,04,24,09,28,168.50
2015,04,24,09,29,167.00
2015,04,24,09,30,166.00
2015,04,24,09,31,165.00
2015,04,24,09,32,165.00
2015,04,24,09,33,163.30
2015,04,24,09,34,163.00
2015,04,24,09,35,163.00
2015,04,24,09,36,163.70
2015,04,24,09,37,166.00
2015,04,24,09,38,168.30
2015,04,24,09,39,169.00
2015,04,24,09,40,170.70
2015,04,24,09,41,172.00
2015,04,24,09,42,172.00
2015,04,24,09,43,172.70
2015,04,24,09,44,175.00
2015,04,24,09,45,177.90
2015,04,24,09,46,183.40
2015,04,24,09,47,189.40
2015,04,24,09,48,198.00
2015,04,24,09,49,207.80
2015,04,24,09,50,215.60
2015,04,24,09,51,223.60
2015,04,24,09,52,231.40
2015,04,24,09,53,237.70
2015,04,24,09,54,245.20
2015,04,24,09,55,251.30
2015,04,24,09,56,253.50
2015,04,24,09,57,255.00
2015,04,24,09,58,255.00
2015,04,24,09,59,253.70
2015,04,24,10,00,251.50
2015,04,24,10,01,250.10
2015,04,24,10,02,250.10
2015,04,24,10,03,251.00
2015,04,24,10,04,252.50
2015,04,24,10,05,256.60
2015,04,24,10,06,261.80
2015,04,24,10,07,267.90
2015,04,24,10,08,275.20
2015,04,24,10,09,284.00
2015,04,24,10,10,291.00
2015,04,24,10,11,294.00
2015,04,24,10,12,294.00
2015,04,24,10,13,294.00
2015,04,24,10,14,290.90
2015,04,24,10,15,287.30
2015,04,24,10,16,280.70
2015,04,24,10,17,276.70
2015,04,24,10,18,270.90
2015,04,24,10,19,269.00
2015,04,24,10,20,269.00
2015,04,24,10,21,271.20
2015,04,24,10,22,273.70
2015,04,24,10,23,278.60
2015,04,24,10,24,284.00
2015,04,24,10,25,287.40
2015,04,24,10,26,289.00
2015,04,24,10,27,292.50
2015,04,24,10,28,294.70
2015,04,24,10,29,298.40
2015,04,24,10,30,307.00
2015,04,24,10,31,317.10
2015,04,24,10,32,327.10
2015,04,24,10,33,339.70
2015,04,24,10,34,349.40
2015,04,24,10,35,359.40
2015,04,24,10,36,378.00
2015,04,24,10,37,400.60
2015,04,24,10,38,413.60
2015,04,24,10,39,427.70
2015,04,24,10,40,436.50
2015,04,24,10,41,446.70
2015,04,24,10,42,457.20
2015,04,24,10,43,453.00
2015,04,24,10,44,448.10
2015,04,24,10,45,436.80
2015,04,24,10,46,439.00
2015,04,24,10,47,442.60
2015,04,24,10,48,447.30
2015,04,24,10,49,451.10
2015,04,24,10,50,454.70
2015,04,24,10,51,463.60
2015,04,24,10,52,475.10
2015,04,24,10,53,481.30
2015,04,24,10,54,479.00
2015,04,24,10,55,470.90
2015,04,24,10,56,455.60
2015,04,24,10,57,440.10
2015,04,24,10,58,425.70
2015,04,24,10,59,412.70
2015,04,24,11,00,402.70
2015,04,24,11,01,392.30
2015,04,24,11,02,384.90
2015,04,24,11,03,380.70
2015,04,24,11,04,374.70
2015,04,24,11,05,372.50
2015,04,24,11,06,368.30
2015,04,24,11,07,368.60
2015,04,24,11,08,363.40
2015,04,24,11,09,335.40
2015,04,24,11,10,312.40
2015,04,24,11,11,296.40
2015,04,24,11,12,283.70
2015,04,24,11,13,274.40
2015,04,24,11,14,267.10
2015,04,24,11,15,261.10
2015,04,24,11,16,256.10
2015,04,24,11,17,252.00
2015,04,24,11,18,251.00
2015,04,24,11,19,251.00
2015,04,24,11,20,250.70
2015,04,24,11,21,250.40
2015,04,24,11,22,251.00
2015,04,24,11,23,252.30
2015,04,24,11,24,253.00
2015,04,24,11,25,254.80
2015,04,24,11,26,258.30
2015,04,24,11,27,260.00
2015,04,24,11,28,260.70
2015,04,24,11,29,263.00
2015,04,24,11,30,264.60
2015,04,24,11,31,269.40
2015,04,24,11,32,275.30
2015,04,24,11,33,284.00
2015,04,24,11,34,293.60
2015,04,24,11,35,299.70
2015,04,24,11,36,302.40
2015,04,24,11,37,306.50
2015,04,24,11,38,311.70
2015,04,24,11,39,321.00
2015,04,24,11,40,342.20
2015,04,24,11,41,379.60
2015,04,24,11,42,395.90
2015,04,24,11,43,406.00
2015,04,24,11,44,524.40
2015,04,24,11,45,602.10
2015,04,24,11,46,582.80
2015,04,24,11,47,563.00
2015,04,24,11,48,552.90
2015,04,24,11,49,542.80
2015,04,24,11,50,535.00
2015,04,24,11,51,523.50
2015,04,24,11,52,524.50
2015,04,24,11,53,488.10
2015,04,24,11,54,495.10
2015,04,24,11,55,487.30
2015,04,24,11,56,513.90
2015,04,24,11,57,538.90
2015,04,24,11,58,573.30
2015,04,24,11,59,632.90
2015,04,24,12,00,668.70
2015,04,24,12,01,659.10
2015,04,24,12,02,571.80
2015,04,24,12,03,603.70
2015,04,24,12,04,607.60
2015,04,24,12,05,631.00
2015,04,24,12,06,635.50
2015,04,24,12,07,698.00
2015,04,24,12,08,768.00
2015,04,24,12,09,752.00
2015,04,24,12,10,716.40
2015,04,24,12,11,682.00
2015,04,24,12,12,747.80
2015,04,24,12,13,756.70
2015,04,24,12,14,751.10
2015,04,24,12,15,741.00
2015,04,24,12,16,687.90
2015,04,24,12,17,722.30
2015,04,24,12,18,721.50
2015,04,24,12,19,697.40
2015,04,24,12,20,663.70
2015,04,24,12,21,597.40
2015,04,24,12,22,674.20
2015,04,24,12,23,659.40
2015,04,24,12,24,655.00
2015,04,24,12,25,688.00
2015,04,24,12,26,697.10
2015,04,24,12,27,711.50
2015,04,24,12,28,704.60
2015,04,24,12,29,696.40
2015,04,24,12,30,700.00
2015,04,24,12,31,700.00
2015,04,24,12,32,699.00
2015,04,24,12,33,694.90
2015,04,24,12,34,719.70
2015,04,24,12,35,712.10
2015,04,24,12,36,746.30
2015,04,24,12,37,757.60
2015,04,24,12,38,775.40
2015,04,24,12,39,788.00
2015,04,24,12,40,582.10
2015,04,24,12,41,426.90
2015,04,24,12,42,450.60
2015,04,24,12,43,455.00
2015,04,24,12,44,487.90
2015,04,24,12,45,582.00
2015,04,24,12,46,582.00
2015,04,24,12,47,603.50
2015,04,24,12,48,690.50
2015,04,24,12,49,715.00
2015,04,24,12,50,875.60
2015,04,24,12,51,876.30
2015,04,24,12,52,923.00
2015,04,24,12,53,896.00
2015,04,24,12,54,811.20
2015,04,24,12,55,786.00
2015,04,24,12,56,786.00
2015,04,24,12,57,810.00
2015,04,24,12,58,810.00
2015,04,24,12,59,885.20
2015,04,24,13,00,1016.60
2015,04,24,13,01,1034.80
2015,04,24,13,02,1058.10
2015,04,24,13,03,1075.80
2015,04,24,13,04,1064.10
2015,04,24,13,05,953.00
2015,04,24,13,06,953.00
2015,04,24,13,07,953.00
2015,04,24,13,08,953.00
2015,04,24,13,09,953.00
2015,04,24,13,10,686.40
2015,04,24,13,11,640.00
2015,04,24,13,12,640.00
2015,04,24,13,13,580.70
2015,04,24,13,14,500.20
2015,04,24,13,15,513.30
2015,04,24,13,16,511.50
2015,04,24,13,17,512.00
2015,04,24,13,18,536.00
2015,04,24,13,19,536.00
2015,04,24,13,20,536.00
2015,04,24,13,21,536.00
2015,04,24,13,22,781.90
2015,04,24,13,23,954.70
2015,04,24,13,24,979.00
2015,04,24,13,25,958.80
2015,04,24,13,26,924.10
2015,04,24,13,27,841.10
2015,04,24,13,28,867.70
2015,04,24,13,29,909.80
2015,04,24,13,30,912.70
2015,04,24,13,31,918.30
2015,04,24,13,32,923.60
2015,04,24,13,33,928.50
2015,04,24,13,34,931.90
2015,04,24,13,35,936.00
2015,04,24,13,36,940.00
2015,04,24,13,37,950.10
2015,04,24,13,38,964.90
2015,04,24,13,39,986.60
2015,04,24,13,40,1002.70
2015,04,24,13,41,1020.10
2015,04,24,13,42,1036.80
2015,04,24,13,43,1056.10
2015,04,24,13,44,1076.10
2015,04,24,13,45,1103.20
2015,04,24,13,46,1106.00
2015,04,24,13,47,1106.00
2015,04,24,13,48,988.60
2015,04,24,13,49,789.00
2015,04,24,13,50,789.00
2015,04,24,13,51,1092.70
2015,04,24,13,52,1199.00
2015,04,24,13,53,1199.00
2015,04,24,13,54,1015.30
2015,04,24,13,55,397.40
2015,04,24,13,56,385.60
2015,04,24,13,57,381.70
2015,04,24,13,58,381.00
2015,04,24,13,59,381.00
2015,04,24,14,00,384.40
2015,04,24,14,01,399.60
2015,04,24,14,02,417.80
2015,04,24,14,03,431.00
2015,04,24,14,04,431.00
2015,04,24,14,05,490.20
2015,04,24,14,06,578.40
2015,04,24,14,07,564.30
2015,04,24,14,08,430.10
2015,04,24,14,09,422.60
2015,04,24,14,10,432.00
2015,04,24,14,11,654.90
2015,04,24,14,12,786.00
2015,04,24,14,13,1027.10
2015,04,24,14,14,1085.70
2015,04,24,14,15,1107.00
2015,04,24,14,16,1046.60
2015,04,24,14,17,956.00
2015,04,24,14,18,979.70
2015,04,24,14,19,986.00
2015,04,24,14,20,760.30
2015,04,24,14,21,692.20
2015,04,24,14,22,464.30
2015,04,24,14,23,506.20
2015,04,24,14,24,549.50
2015,04,24,14,25,525.30
2015,04,24,14,26,520.00
2015,04,24,14,27,520.00
2015,04,24,14,28,520.00
2015,04,24,14,29,520.00
2015,04,24,14,30,520.00
2015,04,24,14,31,520.00
2015,04,24,14,32,520.00
2015,04,24,14,33,694.80
2015,04,24,14,34,756.00
2015,04,24,14,35,756.00
2015,04,24,14,36,820.60
2015,04,24,14,37,1005.00
2015,04,24,14,38,813.50
2015,04,24,14,39,619.00
2015,04,24,14,40,679.20
2015,04,24,14,41,701.00
2015,04,24,14,42,879.90
2015,04,24,14,43,873.90
2015,04,24,14,44,925.40
2015,04,24,14,45,967.30
2015,04,24,14,46,986.90
2015,04,24,14,47,995.00
2015,04,24,14,48,995.00
2015,04,24,14,49,911.60
2015,04,24,14,50,258.90
2015,04,24,14,51,275.10
2015,04,24,14,52,203.40
2015,04,24,14,53,189.50
2015,04,24,14,54,184.30
2015,04,24,14,55,185.60
2015,04,24,14,56,192.60
2015,04,24,14,57,196.50
2015,04,24,14,58,193.80
2015,04,24,14,59,188.60
2015,04,24,15,00,179.70
2015,04,24,15,01,169.30
2015,04,24,15,02,162.70
2015,04,24,15,03,162.10
2015,04,24,15,04,163.40
2015,04,24,15,05,165.00
2015,04,24,15,06,165.00
2015,04,24,15,07,167.50
2015,04,24,15,08,176.40
2015,04,24,15,09,188.40
2015,04,24,15,10,203.10
2015,04,24,15,11,233.70
2015,04,24,15,12,257.00
2015,04,24,15,13,319.60
2015,04,24,15,14,387.00
2015,04,24,15,15,457.40
2015,04,24,15,16,414.70
2015,04,24,15,17,418.00
2015,04,24,15,18,534.90
2015,04,24,15,19,507.70
2015,04,24,15,20,508.90
2015,04,24,15,21,556.60
2015,04,24,15,22,568.00
2015,04,24,15,23,654.90
2015,04,24,15,24,663.00
2015,04,24,15,25,663.00
2015,04,24,15,26,496.30
2015,04,24,15,27,200.50
2015,04,24,15,28,183.60
2015,04,24,15,29,177.30
2015,04,24,15,30,164.10
2015,04,24,15,31,150.70
2015,04,24,15,32,148.00
2015,04,24,15,33,151.00
2015,04,24,15,34,162.30
2015,04,24,15,35,179.10
2015,04,24,15,36,199.10
2015,04,24,15,37,239.80
2015,04,24,15,38,256.60
2015,04,24,15,39,352.90
2015,04,24,15,40,387.00
2015,04,24,15,41,503.00
2015,04,24,15,42,619.00
2015,04,24,15,43,440.50
2015,04,24,15,44,378.00
2015,04,24,15,45,267.80
2015,04,24,15,46,240.00
2015,04,24,15,47,239.30
2015,04,24,15,48,234.40
2015,04,24,15,49,224.10
2015,04,24,15,50,188.90
2015,04,24,15,51,178.80
2015,04,24,15,52,175.70
2015,04,24,15,53,196.20
2015,04,24,15,54,226.50
2015,04,24,15,55,218.40
2015,04,24,15,56,188.70
2015,04,24,15,57,175.00
2015,04,24,15,58,161.60
2015,04,24,15,59,152.80
2015,04,24,16,00,149.00
2015,04,24,16,01,149.00
2015,04,24,16,02,150.00
2015,04,24,16,03,154.10
2015,04,24,16,04,161.20
2015,04,24,16,05,168.30
2015,04,24,16,06,172.50
2015,04,24,16,07,176.40
2015,04,24,16,08,178.40
2015,04,24,16,09,180.00
2015,04,24,16,10,181.00
2015,04,24,16,11,181.00
2015,04,24,16,12,181.00
2015,04,24,16,13,179.10
2015,04,24,16,14,179.00
2015,04,24,16,15,179.00
2015,04,24,16,16,179.00
2015,04,24,16,17,180.20
2015,04,24,16,18,182.50
2015,04,24,16,19,183.00
2015,04,24,16,20,185.00
2015,04,24,16,21,185.00
2015,04,24,16,22,185.00
2015,04,24,16,23,184.00
2015,04,24,16,24,181.70
2015,04,24,16,25,179.50
2015,04,24,16,26,178.10
2015,04,24,16,27,177.80
2015,04,24,16,28,175.50
2015,04,24,16,29,174.00
2015,04,24,16,30,174.00
2015,04,24,16,31,174.00
2015,04,24,16,32,174.00
2015,04,24,16,33,175.70
2015,04,24,16,34,176.20
2015,04,24,16,35,178.20
2015,04,24,16,36,179.00
2015,04,24,16,37,180.00
2015,04,24,16,38,181.00
2015,04,24,16,39,181.00
2015,04,24,16,40,181.00
2015,04,24,16,41,179.20
2015,04,24,16,42,181.00
2015,04,24,16,43,181.00
2015,04,24,16,44,181.00
2015,04,24,16,45,182.30
2015,04,24,16,46,183.00
2015,04,24,16,47,183.00
2015,04,24,16,48,182.80
2015,04,24,16,49,181.00
2015,04,24,16,50,181.00
2015,04,24,16,51,181.00
2015,04,24,16,52,181.00
2015,04,24,16,53,181.00
2015,04,24,16,54,181.00
2015,04,24,16,55,179.00
2015,04,24,16,56,178.70
2015,04,24,16,57,178.00
2015,04,24,16,58,178.00
2015,04,24,16,59,178.60
2015,04,24,17,00,179.00
2015,04,24,17,01,179.00
2015,04,24,17,02,179.00
2015,04,24,17,03,179.50
2015,04,24,17,04,181.00
2015,04,24,17,05,181.00
2015,04,24,17,06,181.00
2015,04,24,17,07,182.50
2015,04,24,17,08,184.80
2015,04,24,17,09,186.20
2015,04,24,17,10,189.10
2015,04,24,17,11,195.60
2015,04,24,17,12,202.90
2015,04,24,17,13,211.00